Minden, LA

4:35 AM CDT on April 29, 2017 (GMT -0500)
Minden

Weather History for KMNE - December, 2012

Change the Weather History Date:

Tuesday, December 4, 2012

  Actual Average (KBAD) Record (KBAD)
Temperature  
Mean Temperature 66 °F -  
Max Temperature 73 °F 58 °F 77 °F (2001)
Min Temperature 60 °F 40 °F 23 °F (2006)
Cooling Degree Days 2    
Growing Degree Days 16 (Base 50)    
Moisture  
Dew Point 63 °F    
Average Humidity 85    
Maximum Humidity 92    
Minimum Humidity 76    
Precipitation  
Precipitation 0.52 in - - ()
Sea Level Pressure  
Sea Level Pressure 30.12 in    
Wind  
Wind Speed 5 mph ()    
Max Wind Speed 14 mph    
Max Gust Speed 26 mph    
Visibility 9.1 miles    
Events Rain , Thunderstorm    
Averages and records for this station are not official NWS values.
T = Trace of Precipitation, MM = Missing Value Source: Averaged Metar Reports

Daily Weather History Graph

Daily Weather History Graph

Search for Another Location

Airport or City:

Trip Planner

Search our weather history database for the weather conditions in past years. The results will help you decide how hot, cold, wet, or windy it might be!

Date:

Astronomy

Dec. 04, 2012 Rise Set
Actual Time 7:00 AM CST 5:07 PM CST
Civil Twilight 6:33 AM CST 5:33 PM CST
Nautical Twilight 6:02 AM CST 6:04 PM CST
Astronomical Twilight 5:32 AM CST 6:34 PM CST
Moon 10:42 PM CST (12/4) 11:05 AM CST (12/4)
Length of Visible Light 11h 00m
Length of Day
10h 06m
Waning Gibbous, 69% of the Moon is Illuminated
Dec 4
Waning Gibbous
Dec 6
Last Quarter
Dec 13
New
Dec 19
First Quarter
Dec 28
Full

Hourly Weather History & Observations

Time (CST) Temp. Dew Point Humidity Pressure Visibility Wind Dir Wind Speed Gust Speed Precip Events Conditions
12:15 AM 68.9 °F 63.7 °F 83% 30.08 in 10.0 mi SSE 4.6 mph - N/A   Overcast
12:35 AM 68.9 °F 63.9 °F 84% 30.09 in 10.0 mi South 5.8 mph - N/A   Overcast
12:55 AM 68.9 °F 64.0 °F 84% 30.09 in 10.0 mi South 4.6 mph - N/A   Overcast
1:15 AM 68.4 °F 63.9 °F 85% 30.09 in 10.0 mi SSE 4.6 mph - N/A   Overcast
1:35 AM 67.8 °F 63.7 °F 87% 30.09 in 10.0 mi SSE 5.8 mph - N/A   Overcast
1:55 AM 68.0 °F 63.9 °F 87% 30.09 in 10.0 mi SSE 4.6 mph - N/A   Overcast
2:15 AM 67.5 °F 63.7 °F 88% 30.09 in 10.0 mi SE 3.5 mph - N/A   Overcast
2:55 AM 66.6 °F 63.5 °F 90% 30.09 in 10.0 mi SE 4.6 mph - N/A   Scattered Clouds
3:15 AM 66.7 °F 63.9 °F 90% 30.09 in 10.0 mi SE 3.5 mph - N/A   Mostly Cloudy
3:35 AM 67.1 °F 64.0 °F 90% 30.09 in 10.0 mi SE 4.6 mph - N/A   Overcast
3:55 AM 67.1 °F 64.0 °F 90% 30.10 in 10.0 mi SSE 3.5 mph - N/A   Overcast
4:15 AM 67.1 °F 64.0 °F 90% 30.09 in 10.0 mi SSE 4.6 mph - N/A   Overcast
4:35 AM 66.6 °F 63.9 °F 91% 30.09 in 10.0 mi SE 5.8 mph - N/A   Mostly Cloudy
4:55 AM 66.4 °F 63.9 °F 92% 30.09 in 10.0 mi SSE 4.6 mph - N/A   Mostly Cloudy
5:15 AM 66.4 °F 63.9 °F 92% 30.09 in 10.0 mi South 3.5 mph - N/A   Overcast
5:35 AM 66.2 °F 63.5 °F 91% 30.08 in 7.0 mi SSE 3.5 mph - N/A   Mostly Cloudy
5:55 AM 65.8 °F 63.5 °F 92% 30.08 in 7.0 mi SE 5.8 mph - N/A   Scattered Clouds
6:15 AM 66.2 °F 63.9 °F 92% 30.10 in 7.0 mi SSE 3.5 mph - N/A   Mostly Cloudy
6:35 AM 66.4 °F 64.0 °F 92% 30.10 in 7.0 mi SSE 3.5 mph - N/A   Overcast
6:55 AM 66.4 °F 64.0 °F 92% 30.12 in 7.0 mi Calm Calm - N/A   Overcast
7:15 AM 66.6 °F 64.0 °F 92% 30.13 in 5.0 mi SSE 3.5 mph - N/A   Overcast
7:35 AM 67.1 °F 64.4 °F 91% 30.14 in 7.0 mi South 4.6 mph - N/A   Overcast
7:55 AM 67.1 °F 64.4 °F 91% 30.13 in 7.0 mi SE 5.8 mph - N/A   Mostly Cloudy
8:15 AM 68.7 °F 65.3 °F 89% 30.13 in 7.0 mi SSE 5.8 mph - N/A   Overcast
8:35 AM 69.1 °F 65.1 °F 87% 30.14 in 10.0 mi South 6.9 mph - N/A   Overcast
8:55 AM 69.6 °F 65.3 °F 86% 30.15 in 10.0 mi South 6.9 mph - N/A   Overcast
9:15 AM 70.9 °F 65.7 °F 83% 30.14 in 10.0 mi South 6.9 mph - N/A Thunderstorm Overcast
9:35 AM 70.7 °F 65.3 °F 83% 30.14 in 10.0 mi South 10.4 mph - N/A   Overcast
9:55 AM 71.6 °F 65.3 °F 80% 30.15 in 10.0 mi SSW 9.2 mph - N/A   Overcast
10:15 AM 71.1 °F 65.3 °F 82% 30.15 in 10.0 mi SSW 3.5 mph - N/A   Overcast
10:35 AM 71.2 °F 65.5 °F 82% 30.15 in 10.0 mi SSW 5.8 mph - N/A   Light Drizzle
10:55 AM 72.5 °F 65.3 °F 78% 30.15 in 10.0 mi SSW 10.4 mph - N/A Thunderstorm Overcast
11:15 AM 72.1 °F 64.9 °F 78% 30.15 in 10.0 mi SSW 10.4 mph - N/A Thunderstorm Overcast
11:35 AM 72.5 °F 64.9 °F 77% 30.14 in 10.0 mi SSW 10.4 mph - N/A Thunderstorm Overcast
11:55 AM 71.8 °F 65.1 °F 79% 30.13 in 10.0 mi SW 6.9 mph 18.4 mph N/A   Overcast
12:15 PM 72.9 °F 65.3 °F 77% 30.12 in 10.0 mi SSW 8.1 mph - N/A Thunderstorm Overcast
12:35 PM 73.4 °F 65.3 °F 76% 30.10 in 10.0 mi SSW 3.5 mph - N/A Thunderstorm Thunderstorm
12:55 PM 73.8 °F 65.7 °F 76% 30.09 in 10.0 mi WSW 9.2 mph - N/A Rain , Thunderstorm Light Thunderstorms and Rain
1:15 PM 72.7 °F 64.6 °F 76% 30.09 in 10.0 mi SW 6.9 mph 10.4 mph N/A Thunderstorm Thunderstorm
1:35 PM 72.5 °F 64.8 °F 77% 30.09 in 10.0 mi SW 8.1 mph - N/A Thunderstorm Overcast
1:55 PM 72.7 °F 65.3 °F 78% 30.08 in 10.0 mi SSW 5.8 mph - N/A Thunderstorm Mostly Cloudy
2:15 PM 72.7 °F 64.8 °F 76% 30.08 in 10.0 mi SSW 8.1 mph - N/A   Mostly Cloudy
2:35 PM 72.9 °F 64.8 °F 76% 30.08 in 10.0 mi SSW 5.8 mph - N/A   Mostly Cloudy
2:55 PM 72.7 °F 64.8 °F 76% 30.08 in 10.0 mi Calm Calm - N/A   Overcast
3:15 PM 72.7 °F 64.9 °F 77% 30.08 in 10.0 mi SSW 3.5 mph - N/A   Mostly Cloudy
3:35 PM 72.7 °F 64.8 °F 76% 30.08 in 10.0 mi SSW 4.6 mph - N/A   Overcast
3:55 PM 72.5 °F 64.8 °F 77% 30.08 in 10.0 mi SSW 3.5 mph - N/A   Overcast
4:15 PM 71.8 °F 64.8 °F 78% 30.08 in 10.0 mi South 3.5 mph - N/A   Overcast
4:35 PM 71.2 °F 64.8 °F 80% 30.08 in 10.0 mi Calm Calm - N/A   Mostly Cloudy
4:55 PM 70.9 °F 64.8 °F 81% 30.08 in 10.0 mi Calm Calm - N/A   Scattered Clouds
5:15 PM 69.8 °F 64.4 °F 83% 30.08 in 10.0 mi South 3.5 mph - N/A Thunderstorm Scattered Clouds
5:35 PM 69.3 °F 64.4 °F 84% 30.09 in 10.0 mi South 3.5 mph - N/A   Clear
5:55 PM 68.9 °F 64.4 °F 86% 30.10 in 10.0 mi Calm Calm - N/A Thunderstorm Clear
6:15 PM 68.0 °F 64.2 °F 88% 30.10 in 7.0 mi Calm Calm - N/A Thunderstorm Scattered Clouds
6:35 PM 67.8 °F 64.0 °F 88% 30.12 in 10.0 mi NNW 13.8 mph 26.5 mph N/A Thunderstorm Thunderstorm
6:55 PM 61.9 °F 57.7 °F 86% 30.13 in 2.0 mi Calm Calm - 0.45 in Rain , Thunderstorm Heavy Thunderstorms and Rain
7:15 PM 63.5 °F 60.8 °F 91% 30.15 in 5.0 mi North 4.6 mph - 0.04 in Rain , Thunderstorm Light Thunderstorms and Rain
7:35 PM 63.7 °F 60.6 °F 90% 30.16 in 10.0 mi NNE 4.6 mph - 0.06 in Rain , Thunderstorm Light Thunderstorms and Rain
7:55 PM 63.1 °F 59.9 °F 89% 30.17 in 10.0 mi NE 4.6 mph - 0.06 in Thunderstorm Unknown
8:15 PM 62.8 °F 59.4 °F 89% 30.16 in 10.0 mi Calm Calm - 0.01 in Thunderstorm Scattered Clouds
8:35 PM 62.2 °F 59.4 °F 90% 30.16 in 10.0 mi NNE 4.6 mph - 0.01 in   Scattered Clouds
8:55 PM 62.6 °F 59.5 °F 90% 30.17 in 10.0 mi NE 3.5 mph - 0.01 in   Overcast
9:15 PM 62.6 °F 59.9 °F 91% 30.18 in 10.0 mi Calm Calm - N/A   Overcast
9:35 PM 62.8 °F 59.9 °F 90% 30.19 in 10.0 mi NE 4.6 mph - N/A   Overcast
9:55 PM 62.8 °F 59.9 °F 90% 30.19 in 10.0 mi NE 3.5 mph - N/A   Overcast
10:15 PM 62.6 °F 59.9 °F 91% 30.19 in 10.0 mi NNE 6.9 mph - N/A   Overcast
10:35 PM 61.9 °F 59.0 °F 90% 30.19 in 10.0 mi NNE 5.8 mph - N/A   Overcast
10:55 PM 61.7 °F 58.8 °F 90% 30.19 in 7.0 mi NNE 8.1 mph - N/A   Overcast
11:15 PM 61.0 °F 58.1 °F 90% 30.19 in 5.0 mi NNE 8.1 mph - N/A   Overcast
11:35 PM 60.8 °F 58.1 °F 91% 30.19 in 4.0 mi NNE 3.5 mph - N/A   Overcast
11:55 PM 60.4 °F 57.7 °F 91% 30.19 in 5.0 mi NNE 4.6 mph - N/A   Overcast